Track LANDSAT 1 (ERTS 1) now! 10-day predictions LANDSAT 1 (ERTS 1) is classified as:
1 06126U 72058A 25182.79730428 -.00000267 00000-0 -15572-3 0 9995 2 06126 99.3657 201.0578 0008637 126.6050 233.5908 13.97796774699007